Regional Weather Roundup
Issued by NWS

Home | Current Version | Previous Version | Graphics & Text | Print | Product List | Glossary On
Versions: 1 2 3 4 5 6 7 8 9 10 11 12 13 14 15 16 17 18 19 20 21 22 23 24 25 26 27 28 29 30 31 32 33 34 35 36 37 38 39 40 41 42 43 44 45 46 47 48 49 50
556
ASUS44 KLIX 231510
RWRLA
LOUISIANA WEATHER ROUNDUP
NATIONAL WEATHER SERVICE NEW ORLEANS LA
1000 AM CDT WED APR 23 2014

NOTE: "FAIR" INDICATES FEW OR NO CLOUDS BELOW 12,000 FEET WITH NO
      SIGNIFICANT WEATHER AND/OR OBSTRUCTIONS TO VISIBILITY.
      SKY/WX - SKY CONDITION AND SIGNIFICANT WEATHER.
      TMP - AIR TEMPERATURE.    DP   - DEWPOINT TEMPERATURE.
      RH  - RELATIVE HUMIDITY.  PRES - PRESSURE.
      HX  - HEAT INDEX.         WCI  - WIND CHILL INDEX.

*  THESE STATIONS ARE NOT NWS OR FAA STATIONS AND ARE NOT UNDER
   NWS QUALITY CONTROL.

LAZ040-048-061>063-065-066-069-231600-
SOUTHEAST LOUISIANA

CITY           SKY/WX    TMP DP  RH WIND       PRES   REMARKS
N.O. AUDUBON     N/A     79  62  56 MISG        N/A
N.O. INTL ARPT SUNNY     74  63  68 NE7       30.00R
N.O. LAKEFRONT SUNNY     70  62  76 N5        30.00R
N.O. DOWNTOWN* FAIR      73  59  60 N5        30.00S
SLIDELL        SUNNY     74  61  63 NE6       29.98R
BATON ROUGE    SUNNY     76  58  53 NE8       30.00R
BOOTHVILLE     SUNNY     72  65  78 N5        30.00R
BELLE CHASSE   SUNNY     75  62  64 E3        29.99R
BOGALUSA*        N/A     74  60  62 CALM      30.00S
GALLIANO*      SUNNY     76  66  72 N6        30.00R
NEW ROADS*     FAIR      74  59  61 E3        30.00S
GONZALES*      FAIR      75  61  60 E5        30.00R
HAMMOND*       SUNNY     77  57  50 NE5       30.01R
HOUMA*         SUNNY     75  61  60 NE6       30.00R
PORT FOURCHON* SUNNY     75  64  69 NE5       30.02R

$$

LAZ041-044-053-054-231600-
SOUTHWEST LOUISIANA

CITY           SKY/WX    TMP DP  RH WIND       PRES   REMARKS
LAKE CHARLES   CLOUDY    72  66  81 E6        30.00R
LAFAYETTE      SUNNY     74  63  68 VRB5      30.00R
PATTERSON      SUNNY     75  63  64 NE8       30.03R
SALT POINT       N/A     76  64  66 CALM      29.99R
NEW IBERIA       N/A     76  63  64 E7        30.00S
CHENAULT AIRPK PTSUNNY   70  70 100 SE3       30.01R FOG

$$

LAZ027-028-231600-
CENTRAL LOUISIANA

CITY           SKY/WX    TMP DP  RH WIND       PRES   REMARKS
FORT POLK      SUNNY     74  60  61 SE6       30.00R
ALEXANDRIA INT SUNNY     75  61  61 VRB5      29.99R
ALEXANDRIA     SUNNY     74  61  63 CALM      30.01R

$$

LAZ001-002-231600-
NORTHWEST LOUISIANA

CITY           SKY/WX    TMP DP  RH WIND       PRES   REMARKS
SHREVEPORT     SUNNY     75  61  61 S9        29.99R
BARKSDALE AFB  SUNNY     74  61  64 SE7       29.99R
DTN SHREVEPORT SUNNY     73  61  65 S8        29.99R

$$

LAZ014-016-231600-
NORTHEAST LOUISIANA

CITY           SKY/WX    TMP DP  RH WIND       PRES   REMARKS
MONROE         SUNNY     71  53  52 E6        30.03R
TALLULAH       SUNNY     72  51  47 E5        30.02R

$$




USA.gov is the U.S. government's official web portal to all federal, state and local government web resources and services.